Weather History for KBYY - April, 2013

Change the Weather History Date:

Thursday, April 25, 2013

  Actual Average (KLBX) Record (KLBX)
Temperature  
Mean Temperature 64 °F -  
Max Temperature 67 °F 78 °F 88 °F (2006)
Min Temperature 60 °F 62 °F 48 °F (2001)
Degree Days  
Heating Degree Days 2    
Growing Degree Days 14 (Base 50)    
Moisture  
Dew Point 55 °F    
Average Humidity 75    
Maximum Humidity 100    
Minimum Humidity 61    
Precipitation  
Precipitation 0.00 in - - ()
Sea Level Pressure  
Sea Level Pressure 30.22 in    
Wind  
Wind Speed 7 mph (NE)    
Max Wind Speed 14 mph    
Max Gust Speed 17 mph    
Visibility 10 miles    
Events Rain    
Averages and records for this station are not official NWS values.
T = Trace of Precipitation, MM = Missing Value Source: NWS Daily Summary

Daily Weather History Graph

Daily Weather History Graph

Search for Another Location

Airport or City:

Trip Planner

Search our weather history database for the weather conditions in past years. The results will help you decide how hot, cold, wet, or windy it might be!

Date:

Astronomy

Apr. 25, 2013 Rise Set
Actual Time 6:47 AM CDT 7:55 PM CDT
Civil Twilight 6:22 AM CDT 8:20 PM CDT
Nautical Twilight 5:53 AM CDT 8:50 PM CDT
Astronomical Twilight 5:22 AM CDT 9:20 PM CDT
Moon 8:07 PM CDT (4/25) 6:30 AM CDT (4/25)
Length of Visible Light 13h 58m
Length of Day
13h 08m
Full, 100% of the Moon is Illuminated
Apr 25
Full
Apr 25
Full
May 2
Last Quarter
May 9
New
May 17
First Quarter

Hourly Weather History & Observations

Time (CDT) Temp. Dew Point Humidity Pressure Visibility Wind Dir Wind Speed Gust Speed Precip Events Conditions
12:15 AM 61.7 °F 59.4 °F 92% 30.19 in 10.0 mi Calm Calm - N/A   Overcast
12:35 AM 61.7 °F 56.3 °F 82% 30.19 in 10.0 mi North 4.6 mph - N/A   Overcast
12:55 AM 61.9 °F 54.5 °F 77% 30.19 in 10.0 mi NNE 4.6 mph - N/A   Overcast
1:15 AM 61.9 °F 54.0 °F 75% 30.18 in 10.0 mi NNE 4.6 mph - N/A   Overcast
1:35 AM 61.9 °F 53.4 °F 74% 30.18 in 10.0 mi North 5.8 mph - N/A   Overcast
1:55 AM 61.9 °F 52.7 °F 72% 30.18 in 10.0 mi NNE 6.9 mph - N/A   Overcast
2:15 AM 61.9 °F 52.2 °F 70% 30.18 in 10.0 mi NNE 5.8 mph - N/A   Overcast
2:35 AM 61.9 °F 52.2 °F 70% 30.19 in 10.0 mi Calm Calm - N/A   Overcast
2:55 AM 61.9 °F 52.0 °F 70% 30.19 in 10.0 mi North 5.8 mph - N/A   Overcast
3:15 AM 61.7 °F 52.3 °F 71% 30.19 in 10.0 mi North 4.6 mph - N/A   Overcast
3:35 AM 61.7 °F 52.2 °F 71% 30.19 in 10.0 mi North 4.6 mph - N/A   Overcast
3:55 AM 61.7 °F 52.0 °F 70% 30.19 in 10.0 mi NNE 6.9 mph - N/A   Overcast
4:15 AM 61.7 °F 51.6 °F 69% 30.18 in 10.0 mi NNE 6.9 mph - N/A   Overcast
4:35 AM 61.7 °F 51.6 °F 69% 30.18 in 10.0 mi NE 5.8 mph - N/A   Overcast
4:55 AM 61.3 °F 51.6 °F 70% 30.19 in 10.0 mi NNE 6.9 mph - N/A   Overcast
5:15 AM 61.5 °F 51.8 °F 70% 30.20 in 10.0 mi North 5.8 mph - N/A   Overcast
5:35 AM 61.2 °F 52.0 °F 72% 30.19 in 10.0 mi NNE 5.8 mph - N/A   Overcast
5:55 AM 61.2 °F 52.5 °F 73% 30.20 in 10.0 mi NNE 11.5 mph - N/A   Overcast
6:15 AM 61.3 °F 52.5 °F 73% 30.20 in 10.0 mi NNE 6.9 mph - N/A   Overcast
6:35 AM 61.2 °F 52.5 °F 73% 30.21 in 10.0 mi NNE 9.2 mph - N/A   Overcast
6:55 AM 60.8 °F 52.0 °F 73% 30.22 in 10.0 mi NE 8.1 mph - N/A   Overcast
7:15 AM 60.6 °F 52.0 °F 73% 30.22 in 10.0 mi NNE 10.4 mph - N/A   Overcast
7:35 AM 60.6 °F 51.8 °F 73% 30.23 in 10.0 mi NNE 12.7 mph 17.3 mph N/A   Overcast
7:55 AM 60.8 °F 51.4 °F 71% 30.24 in 10.0 mi NNE 10.4 mph - N/A   Overcast
8:15 AM 60.8 °F 51.3 °F 71% 30.25 in 10.0 mi NE 12.7 mph 17.3 mph N/A   Overcast
8:35 AM 61.2 °F 51.6 °F 71% 30.26 in 10.0 mi NE 9.2 mph - N/A   Overcast
8:55 AM 61.7 °F 52.2 °F 71% 30.26 in 10.0 mi NE 13.8 mph - N/A   Overcast
9:15 AM 61.7 °F 52.0 °F 70% 30.27 in 10.0 mi NE 13.8 mph 17.3 mph N/A   Overcast
9:35 AM 61.7 °F 51.8 °F 70% 30.28 in 10.0 mi NE 13.8 mph - N/A   Overcast
9:55 AM 62.2 °F 51.4 °F 68% 30.28 in 10.0 mi NE 13.8 mph - N/A   Overcast
10:15 AM 62.8 °F 50.7 °F 65% 30.29 in 10.0 mi NE 9.2 mph - N/A   Overcast
10:35 AM 63.3 °F 50.4 °F 63% 30.29 in 10.0 mi NNE 11.5 mph 16.1 mph N/A   Overcast
10:55 AM 63.3 °F 49.6 °F 61% 30.29 in 10.0 mi NE 12.7 mph - N/A   Overcast
11:15 AM 63.9 °F 50.0 °F 61% 30.30 in 10.0 mi ENE 10.4 mph - N/A   Overcast
11:35 AM 63.3 °F 49.5 °F 61% 30.30 in 10.0 mi NE 11.5 mph - N/A   Overcast
11:55 AM 61.9 °F 49.1 °F 63% 30.30 in 10.0 mi NE 12.7 mph - N/A   Overcast
12:15 PM 61.5 °F 49.5 °F 65% 30.29 in 10.0 mi NE 8.1 mph - N/A   Overcast
12:35 PM 61.7 °F 49.5 °F 64% 30.29 in 10.0 mi NE 11.5 mph - N/A   Overcast
12:55 PM 61.3 °F 49.5 °F 65% 30.29 in 10.0 mi ENE 6.9 mph - N/A   Overcast
1:15 PM 61.2 °F 49.8 °F 66% 30.28 in 10.0 mi ENE 9.2 mph - N/A   Overcast
1:35 PM 61.2 °F 50.4 °F 68% 30.28 in 10.0 mi NE 9.2 mph - N/A Rain Light Rain
1:55 PM 61.5 °F 50.2 °F 66% 30.27 in 10.0 mi ENE 9.2 mph - N/A   Overcast
2:15 PM 62.2 °F 50.0 °F 64% 30.26 in 10.0 mi NE 9.2 mph - N/A   Overcast
2:35 PM 63.5 °F 50.9 °F 63% 30.24 in 10.0 mi ENE 12.7 mph - N/A   Overcast
2:55 PM 63.9 °F 50.9 °F 63% 30.24 in 10.0 mi ENE 12.7 mph - N/A   Overcast
3:15 PM 63.7 °F 51.6 °F 65% 30.24 in 10.0 mi ENE 9.2 mph - N/A   Overcast
3:35 PM 64.6 °F 52.5 °F 65% 30.23 in 10.0 mi ENE 10.4 mph - N/A   Overcast
3:55 PM 65.7 °F 53.6 °F 65% 30.22 in 10.0 mi East 10.4 mph - N/A   Overcast
4:15 PM 65.7 °F 54.1 °F 66% 30.21 in 10.0 mi ENE 11.5 mph - N/A   Overcast
4:35 PM 66.0 °F 55.2 °F 68% 30.20 in 10.0 mi ENE 10.4 mph - N/A   Overcast
4:55 PM 66.2 °F 56.1 °F 70% 30.20 in 10.0 mi ENE 10.4 mph - N/A   Overcast
5:15 PM 66.4 °F 57.0 °F 72% 30.20 in 10.0 mi East 11.5 mph - N/A   Overcast
5:35 PM 67.1 °F 58.3 °F 73% 30.19 in 10.0 mi ENE 9.2 mph - N/A   Overcast
5:55 PM 67.1 °F 59.0 °F 75% 30.20 in 10.0 mi ENE 8.1 mph - N/A   Overcast
6:15 PM 66.7 °F 59.5 °F 78% 30.19 in 10.0 mi East 9.2 mph - N/A   Overcast
6:35 PM 66.6 °F 60.4 °F 81% 30.19 in 10.0 mi ENE 8.1 mph - N/A   Overcast
6:55 PM 66.2 °F 60.8 °F 83% 30.18 in 10.0 mi East 9.2 mph - N/A   Overcast
7:15 PM 66.0 °F 61.2 °F 84% 30.18 in 10.0 mi East 10.4 mph - N/A   Overcast
7:35 PM 65.7 °F 61.5 °F 86% 30.19 in 10.0 mi East 6.9 mph - N/A   Overcast
7:55 PM 65.3 °F 61.7 °F 88% 30.19 in 10.0 mi ENE 5.8 mph - N/A   Overcast
8:15 PM 65.3 °F 61.9 °F 89% 30.19 in 10.0 mi ENE 9.2 mph - N/A   Overcast
8:35 PM 65.3 °F 62.1 °F 89% 30.19 in 10.0 mi ENE 8.1 mph - N/A   Overcast
8:55 PM 65.3 °F 62.8 °F 92% 30.19 in 10.0 mi East 8.1 mph - N/A   Overcast
9:15 PM 65.3 °F 64.8 °F 98% 30.19 in 10.0 mi ENE 9.2 mph - N/A   Overcast
9:35 PM 65.3 °F 65.3 °F 100% 30.20 in 10.0 mi East 6.9 mph - N/A   Overcast
9:55 PM 65.5 °F 65.5 °F 100% 30.21 in 10.0 mi East 5.8 mph - N/A   Overcast
10:15 PM 65.7 °F 65.7 °F 100% 30.21 in 10.0 mi East 6.9 mph - N/A   Overcast
10:35 PM 66.0 °F 66.0 °F 100% 30.22 in 10.0 mi East 6.9 mph - N/A   Overcast
10:55 PM 66.2 °F 66.2 °F 100% 30.21 in 10.0 mi East 9.2 mph - N/A   Overcast
11:15 PM 66.6 °F 66.6 °F 100% 30.21 in 10.0 mi East 8.1 mph - N/A   Overcast
11:35 PM 66.9 °F 66.9 °F 100% 30.21 in 10.0 mi East 9.2 mph - N/A   Overcast
11:55 PM 67.1 °F 67.1 °F 100% 30.20 in 10.0 mi East 8.1 mph - N/A   Overcast